"Pseudo-MPEC" for P12oAYO

Created 2026 Jul 26 2:35:05 UT using Find_Orb

Click here for an explanation of pseudo-MPECs

 
 Astrometry: 
     P12oAYO 0C2026 07 24.42204823 35 17.772-00 25 15.94   ~7OLK 20.30rUNEOCPI41
     P12oAYO 0C2026 07 24.44243523 35 37.327-00 22 13.72   ~7OLK 20.42gUNEOCPI41
     P12oAYO 0C2026 07 24.47253923 36 06.441-00 17 45.63   ~7OLK 19.73iUNEOCPI41
     P12oAYO*0C2026 07 24.57747323 37 52.116-00 01 42.81   ~7OFo 20.16wXNEOCPF51
     P12oAYO 0C2026 07 24.58922923 38 03.610+00 00 04.00   ~7OFo 20.24wXNEOCPF51
     P12oAYO 0C2026 07 24.60130023 38 15.416+00 01 53.52   ~7OFo 20.11wXNEOCPF51
     P12oAYO 0C2026 07 24.61299223 38 26.875+00 03 39.92   ~7OFo 20.29wXNEOCPF51
     P12oAYO KB2026 07 24.98112523 44 54.161+01 00 17.28   ~7P0K 19.8 GXNEOCP595
     P12oAYO KB2026 07 24.99254123 45 06.034+01 02 06.29   ~7P0K 19.8 GXNEOCP595
     P12oAYO 0C2026 07 25.06941823 46 27.418+01 14 17.05   ~7P2K 19.7 GWNEOCPJ95
     P12oAYO 0C2026 07 25.07660023 46 34.987+01 15 26.46   ~7P2K 19.9 GWNEOCPJ95
     P12oAYO 0C2026 07 25.08421023 46 43.025+01 16 39.79   ~7P2K 20.0 GWNEOCPJ95
     P12oAYO 1B2026 07 26.05857300 05 19.416+04 04 27.12   ~7Q2K 19.4 VZNEOCPM49
     P12oAYO 1B2026 07 26.06592100 05 28.075+04 05 46.61   ~7Q2K 19.3 VZNEOCPM49
     P12oAYO 1B2026 07 26.07320400 05 36.662+04 07 05.41   ~7Q2K 19.6 VZNEOCPM49

Station data:
(595) Farra d'Isonzo  (N45.915731 E13.525780)  Italy.  Observers S. Aschi, E.
   Pettarin, G. Panterotto. Measurers S. Aschi, E. Pettarin. 0.40-m f/5.15
   reflector + CCD.
(F51) Pan-STARRS 1, Haleakala  (N20.707234 W156.255910)  US/Hawaii.
   Observers J. Herman, T. Lowe, P. Minguez, A. Schultz, I. Smith. Measurers
   K. Chambers, T. de Boer, J. Fairlamb, H. Gao, M. Huber, C.-C. Lin, E.
   Magnier, Y. Ramanjooloo, R. Wainscoat, R. Weryk. 1.8-m Ritchey-Chrétien +
   CCD.
(I41) Palomar Mountain--ZTF  (N33.357336 W116.859780)  US/California.
   Observers B. T. Bolin, Z. T. F. Collaboration. Measurers B. T. Bolin,
   Z.-Y. Lin, F. J. Masci. 1.2-m f/2.4 Schmidt.
(J95) Great Shefford  (N51.474969 W1.447003)  UK/England.  Observer P.
   Birtwhistle. 0.41-m f/6.3 Schmidt-Cassegrain + CCD.
(M49) IAS Remote Observatory, Hakos  (S23.236549 E16.361720)  Namibia.
   Observers D. Husar, M. Junius. Measurer D. Husar. 0.25-m f/4.6 reflector +
   CCD.

Orbital elements:  P12oAYO
   Perihelion 2026 Sep 16.410128 +/- 0.0544 TT =  9:50:35.0 (JD 2461299.910128)
Epoch 2026 Jul 26.0 TT = JDT 2461247.5   Earth MOID: 0.0093   Ve: 0.0705
M 339.592450873 +/- 0.13            Ma: 0.0066                   AutoNEOCP
n   0.389381786 +/- 0.00216         Peri.   83.603322 +/- 0.026
a   1.857315260 +/- 0.00686         Node   301.542541 +/- 0.009
e   0.59849725 +/- 0.00166          Incl.    2.894418 +/- 0.006
P   2.531/924.525d         H 23.05  G  0.15   U  8.6
q 0.745717171 +/- 0.000349    Q 2.968913349 +/- 0.014     (J2000 ecliptic)
From 15 observations 2026 July 24-26 (39.6 hr); mean residual 0".29
Residuals in arcseconds: 
260724 I41  .37+  .20-    260724 F51  .01+  .07-    260725 J95  .10-  .06+    
260724 I41  .87-  .59+    260724 F51  .11-  .09-    260725 J95  .07-  .05-    
260724 I41  .19-  .10-    260724 595  .77+  .32+    260726 M49  .09+  .21-    
260724 F51  .11+  .02-    260724 595  .30-  .39+    260726 M49  .01+  .02+    
260724 F51  .18+  .11+    260725 J95  .08+  .10-    260726 M49  .06-  .20+    

Ephemerides (geocentric):
Date (UTC) HH   RA             Dec           delta  r     elong  mag " sig PA
---- --------  ------------   ------------  ------ ------ -----  --- --------
2026 07 26 03  00 06 38.260   +04 15 39.62  .08835 1.0620 119.5 20.0 .162  98
2026 07 26 04  00 07 29.384   +04 23 12.06  .08814 1.0616 119.3 20.0 .170  96
2026 07 26 05  00 08 20.760   +04 30 46.38  .08793 1.0612 119.1 20.0 .178  94
2026 07 26 06  00 09 12.389   +04 38 22.56  .08772 1.0608 118.9 20.0 .186  92
2026 07 26 07  00 10 04.273   +04 46 00.60  .08752 1.0604 118.7 20.0 .195  90
2026 07 26 08  00 10 56.411   +04 53 40.48  .08732 1.0600 118.5 20.0 .204  89
2026 07 26 09  00 11 48.804   +05 01 22.20  .08711 1.0596 118.3 20.0 .214  87
2026 07 26 10  00 12 41.453   +05 09 05.73  .08691 1.0593 118.1 20.0 .224  86
2026 07 26 11  00 13 34.357   +05 16 51.07  .08672 1.0589 117.9 20.0 .235  84
2026 07 26 12  00 14 27.518   +05 24 38.20  .08652 1.0585 117.6 20.0 .246  83
2026 07 26 13  00 15 20.935   +05 32 27.10  .08632 1.0581 117.4 20.0 .257  82
2026 07 26 14  00 16 14.609   +05 40 17.76  .08613 1.0577 117.2 20.0 .269  81
2026 07 26 15  00 17 08.541   +05 48 10.17  .08594 1.0573 117.0 20.0 .281  80
2026 07 26 16  00 18 02.730   +05 56 04.29  .08575 1.0570 116.8 20.0 .294  79
2026 07 26 17  00 18 57.177   +06 04 00.13  .08556 1.0566 116.5 20.0 .306  78
2026 07 26 18  00 19 51.882   +06 11 57.66  .08538 1.0562 116.3 20.0 .320  77
2026 07 26 19  00 20 46.846   +06 19 56.86  .08519 1.0558 116.1 20.0 .333  77
2026 07 26 20  00 21 42.067   +06 27 57.72  .08501 1.0554 115.9 20.0 .347  76
2026 07 26 21  00 22 37.548   +06 36 00.21  .08483 1.0550 115.7 20.0 .362  75
2026 07 26 22  00 23 33.287   +06 44 04.31  .08465 1.0547 115.4 20.0 .376  74
2026 07 26 23  00 24 29.285   +06 52 10.00  .08448 1.0543 115.2 20.0 .391  74
2026 07 27 00  00 25 25.542   +07 00 17.26  .08430 1.0539 115.0 20.0 .407  73
2026 07 27 01  00 26 22.058   +07 08 26.08  .08413 1.0535 114.7 20.0 .422  73
2026 07 27 02  00 27 18.833   +07 16 36.41  .08396 1.0531 114.5 20.0 .438  72
2026 07 27 03  00 28 15.867   +07 24 48.26  .08379 1.0527 114.3 20.0 .455  72
2026 07 27 04  00 29 13.159   +07 33 01.57  .08362 1.0524 114.0 20.0 .472  71
2026 07 27 05  00 30 10.710   +07 41 16.35  .08345 1.0520 113.8 20.0 .489  71
2026 07 27 06  00 31 08.519   +07 49 32.55  .08329 1.0516 113.6 20.0 .506  71
2026 07 27 07  00 32 06.587   +07 57 50.16  .08313 1.0512 113.3 20.0 .524  70
2026 07 27 08  00 33 04.913   +08 06 09.14  .08297 1.0508 113.1 20.0 .542  70
2026 07 27 09  00 34 03.496   +08 14 29.47  .08281 1.0504 112.9 20.0 .561  70
2026 07 27 10  00 35 02.337   +08 22 51.12  .08265 1.0501 112.6 20.0 .580  69
2026 07 27 11  00 36 01.435   +08 31 14.07  .08250 1.0497 112.4 20.0 .599  69
2026 07 27 12  00 37 00.790   +08 39 38.28  .08235 1.0493 112.1 20.0 .619  69
2026 07 27 13  00 38 00.401   +08 48 03.72  .08220 1.0489 111.9 20.0 .638  68
2026 07 27 14  00 39 00.268   +08 56 30.37  .08205 1.0485 111.7 20.0 .659  68
2026 07 27 15  00 40 00.390   +09 04 58.19  .08190 1.0481 111.4 20.0 .679  68
2026 07 27 16  00 41 00.767   +09 13 27.15  .08176 1.0478 111.2 20.0 .700  68
2026 07 27 17  00 42 01.398   +09 21 57.22  .08162 1.0474 110.9 20.0 .721  68
2026 07 27 18  00 43 02.283   +09 30 28.37  .08148 1.0470 110.7 20.0 .743  67
2026 07 27 19  00 44 03.421   +09 39 00.57  .08134 1.0466 110.4 20.0 .765  67
2026 07 27 20  00 45 04.810   +09 47 33.77  .08120 1.0462 110.2 20.0 .787  67
2026 07 27 21  00 46 06.451   +09 56 07.95  .08107 1.0458 109.9 20.0 .810  67
2026 07 27 22  00 47 08.343   +10 04 43.06  .08094 1.0455 109.7 20.0 .833  67
2026 07 27 23  00 48 10.484   +10 13 19.08  .08081 1.0451 109.4 20.0 .856  67
2026 07 28 00  00 49 12.874   +10 21 55.97  .08068 1.0447 109.2 20.0 .879  66
2026 07 28 01  00 50 15.512   +10 30 33.69  .08056 1.0443 108.9 20.0 .903  66
2026 07 28 02  00 51 18.396   +10 39 12.20  .08043 1.0439 108.7 20.0 .927  66